TimePST,TemperatureF,Dew PointF,Humidity,Sea Level PressureIn,VisibilityMPH,Wind Direction,Wind SpeedMPH,Gust SpeedMPH,PrecipitationIn,Events,Conditions,WindDirDegrees,DateUTC
12:17 AM,48.2,44.6,87,30.31,10.0,Calm,Calm,-,N/A,,Overcast,0,2013-01-04 08:17:00
12:56 AM,48.0,43.0,83,30.32,10.0,ENE,3.5,-,N/A,,Overcast,70,2013-01-04 08:56:00
1:31 AM,46.4,42.8,87,30.31,10.0,ENE,3.5,-,N/A,,Overcast,70,2013-01-04 09:31:00
1:56 AM,46.9,42.1,83,30.31,10.0,East,3.5,-,N/A,,Overcast,80,2013-01-04 09:56:00
2:56 AM,46.9,42.1,83,30.32,10.0,East,3.5,-,N/A,,Overcast,90,2013-01-04 10:56:00
3:56 AM,45.0,39.9,82,30.31,10.0,East,4.6,-,N/A,,Mostly Cloudy,90,2013-01-04 11:56:00
4:10 AM,44.6,39.2,81,30.30,10.0,East,5.8,-,N/A,,Scattered Clouds,90,2013-01-04 12:10:00
4:56 AM,44.1,37.9,79,30.29,10.0,East,4.6,-,N/A,,Clear,80,2013-01-04 12:56:00
5:56 AM,42.1,37.0,82,30.29,10.0,Calm,Calm,-,N/A,,Clear,0,2013-01-04 13:56:00
6:56 AM,43.0,37.0,80,30.30,10.0,ENE,3.5,-,N/A,,Clear,70,2013-01-04 14:56:00
7:56 AM,42.1,37.0,82,30.30,10.0,East,4.6,-,N/A,,Clear,90,2013-01-04 15:56:00
8:56 AM,44.1,37.9,79,30.30,10.0,ESE,4.6,-,N/A,,Clear,110,2013-01-04 16:56:00
9:56 AM,48.9,39.9,71,30.30,10.0,East,5.8,-,N/A,,Clear,100,2013-01-04 17:56:00
10:56 AM,50.0,43.0,77,30.30,10.0,South,5.8,-,N/A,,Clear,190,2013-01-04 18:56:00
11:56 AM,50.0,44.1,80,30.28,10.0,SSW,6.9,-,N/A,,Clear,200,2013-01-04 19:56:00
12:56 PM,52.0,41.0,66,30.24,10.0,South,5.8,-,N/A,,Clear,170,2013-01-04 20:56:00
1:56 PM,53.1,39.0,59,30.21,10.0,Calm,Calm,-,N/A,,Clear,0,2013-01-04 21:56:00
2:56 PM,53.1,37.9,57,30.20,10.0,South,5.8,-,N/A,,Clear,190,2013-01-04 22:56:00
3:56 PM,51.1,37.9,61,30.21,10.0,SSW,4.6,-,N/A,,Clear,200,2013-01-04 23:56:00
4:56 PM,48.0,39.0,71,30.20,10.0,Calm,Calm,-,N/A,,Clear,0,2013-01-05 00:56:00
5:56 PM,44.1,37.9,79,30.19,10.0,East,4.6,-,N/A,,Clear,100,2013-01-05 01:56:00
6:56 PM,42.1,37.9,85,30.19,10.0,Calm,Calm,-,N/A,,Clear,0,2013-01-05 02:56:00
7:56 PM,41.0,37.9,89,30.19,10.0,East,3.5,-,N/A,,Clear,90,2013-01-05 03:56:00
8:56 PM,42.1,39.0,89,30.19,10.0,East,5.8,-,N/A,,Clear,90,2013-01-05 04:56:00
9:56 PM,42.1,39.0,89,30.19,10.0,East,4.6,-,N/A,,Clear,100,2013-01-05 05:56:00
10:56 PM,41.0,37.9,89,30.19,10.0,East,5.8,-,N/A,,Clear,100,2013-01-05 06:56:00
11:56 PM,39.9,37.0,89,30.17,10.0,East,4.6,-,N/A,,Clear,90,2013-01-05 07:56:00